Dewpoint
8 6 3 4 4 2 2 4 4 5 6 8 8 9 9 8 8 9 9 10 10 11 11 11 11 11 10 6 7 8 8 10 10 9 9 8 7 6 4 1 -7 -12 -12
8 7 7 6 5 4 3 3 4 7 8 9 9 9 9 10 10 10 10 11 11 11 12 11 10 10 9 9 8 8 9 9 10 10 10 9 8 8 7 5 2 -6 -11
9 9 8 7 6 6 4 5 7 9 9 10 10 10 11 11 10 11 10 10 10 10 11 9 9 8 9 8 8 8 7 8 9 10 10 10 9 8 8 7 6 4 -5
11 10 9 8 7 8 8 9 10 10 10 11 11 11 10 10 10 10 10 10 10 10 11 8 9 9 8 7 8 7 8 7 7 8 9 10 10 9 9 8 8 6 5
12 11 9 9 8 10 10 11 11 11 11 11 10 10 9 10 11 11 10 10 11 10 8 9 9 8 8 6 7 6 6 7 7 7 8 9 9 9 9 9 9 8 7
11 10 9 10 10 11 11 11 12 12 12 11 10 10 10 10 9 9 9 9 9 9 9 9 9 7 7 7 5 5 7 6 5 6 6 7 8 8 9 9 8 8 8
11 11 11 11 11 11 11 12 11 11 10 10 11 9 9 8 8 7 7 6 5 5 7 9 9 8 8 6 4 5 5 5 5 3 3 4 6 6 7 8 10 9 8
11 11 12 11 11 12 12 12 11 11 11 10 10 10 10 8 5 7 7 7 6 7 9 8 9 8 7 6 6 5 5 4 4 3 2 3 5 5 6 7 7 8 9
11 10 10 10 10 12 12 12 12 9 9 8 9 10 9 9 9 8 7 8 8 8 8 8 7 7 7 7 7 5 5 4 4 3 2 2 4 5 7 6 7 7 7
10 9 8 8 8 10 13 10 6 5 4 3 3 4 5 7 10 7 7 7 8 8 7 7 7 7 8 8 7 7 5 4 4 3 2 2 6 6 6 3 2 6 7
10 9 8 9 10 10 9 1 -2 -2 -2 -2 -2 -1 0 1 2 7 8 7 6 7 8 8 7 8 8 7 7 7 4 3 3 3 2 5 5 5 3 2 2 2 2
9 8 6 7 8 4 -2 -2 -3 -3 -3 -2 -2 -1 -0 1 2 3 5 5 5 7 7 7 8 7 7 8 7 5 4 3 2 2 4 5 5 4 5 5 4 2 1
6 6 6 8 2 -2 -2 -3 -4 -3 -3 -2 -1 -0 0 1 2 3 6 6 6 7 7 7 7 7 7 7 6 5 4 4 3 1 2 4 3 2 3 5 4 4 0
8 8 8 1 -2 -2 -3 -3 -2 -2 -2 -2 -2 -1 -1 0 2 1 4 5 6 7 7 6 7 7 7 7 5 5 4 3 3 1 1 1 1 1 2 2 1 0 -0
8 7 -0 -2 -3 -2 -2 -2 -1 -1 -1 -1 -1 -1 -1 -0 1 0 2 5 6 6 5 7 6 6 6 6 5 4 4 3 2 0 -0 1 1 1 1 1 1 2 3
3 -0 -1 1 5 5 2 -0 -1 -1 -0 -1 -1 -1 -1 -1 -0 0 1 5 5 5 5 5 6 6 6 5 4 4 3 2 1 -0 0 1 1 1 0 1 2 3 4
1 3 4 4 4 3 0 -1 -1 -1 -0 -0 -0 0 0 0 1 1 4 4 4 5 5 5 5 5 5 4 4 3 3 1 0 -1 -1 1 1 0 -1 -1 1 2 3
2 1 3 4 3 0 -0 -0 -0 0 0 0 0 1 1 1 1 2 3 3 3 3 3 4 4 4 4 4 3 2 2 1 -0 -2 -2 -3 -3 -5 -4 -2 0 1 3
-0 1 1 0 0 -0 -0 -0 0 0 0 1 1 1 1 1 1 2 2 2 2 2 3 2 3 3 3 2 2 2 1 0 -2 -3 -5 -10 -12 -14 -10 -5 -2 -0 0
1 1 1 1 -0 -0 -0 -0 -0 0 0 0 1 1 1 1 1 1 1 1 2 2 2 2 2 2 2 1 0 0 -1 -3 -8 -14 -19 -21 -23 -25 -24 -19 -11 -5 -1
1 1 1 0 0 -0 -0 -0 -0 0 0 1 1 1 1 1 1 1 1 1 1 1 2 2 1 1 0 -3 -4 -6 -12 -18 -21 -24 -25 -24 -21 -22 -24 -25 -26 -25 -13
1 1 1 1 0 -0 -0 -1 -0 0 0 0 0 -0 -0 0 0 1 1 1 1 1 1 1 0 -1 -6 -11 -15 -18 -19 -22 -24 -25 -24 -22 -24 -26 -26 -26 -27 -30 -30
2 1 1 1 0 -0 -1 -1 -0 -0 0 0 -0 -0 -0 -0 -5 -12 -18 -11 -9 -13 -20 -23 -21 -19 -18 -20 -20 -21 -23 -24 -26 -26 -26 -24 -24 -25 -24 -25 -25 -24 -27
2 1 1 0 -0 -1 -0 -1 -1 -1 -1 -1 -1 -1 -1 -12 -23 -23 -22 -22 -25 -26 -27 -28 -27 -25 -23 -23 -22 -25 -26 -27 -26 -25 -23 -22 -24 -23 -21 -20 -20 -19 -18
2 1 1 0 -0 -0 -0 -1 -1 -1 -1 -1 -1 -1 -14 -23 -20 -19 -23 -25 -25 -24 -25 -28 -28 -29 -29 -30 -30 -29 -29 -29 -29 -26 -22 -21 -20 -18 -18 -17 -17 -17 -17
1 1 1 -0 -0 -0 -0 -1 -2 -1 -1 -3 -12 -24 -24 -22 -20 -21 -27 -25 -22 -22 -22 -22 -24 -25 -26 -26 -29 -29 -28 -28 -28 -27 -25 -20 -17 -16 -17 -17 -16 -16 -16
Wind_Speed
9 6 7 7 6 6 6 5 4 3 3 3 3 3 4 5 6 6 6 7 8 9 10 11 13 14 15 17 14 15 14 13 12 11 11 10 9 10 9 9 8 7 5
9 7 7 7 7 5 5 5 5 5 4 4 5 6 7 7 7 7 8 10 12 12 12 13 15 15 17 12 11 13 14 14 15 14 12 10 10 10 9 8 8 8 7
9 8 8 7 7 7 6 5 5 5 6 7 8 8 7 7 10 12 14 14 15 17 14 17 15 14 14 13 14 17 15 14 14 15 15 14 12 10 10 9 8 8 7
11 11 10 9 9 8 7 6 6 7 8 9 9 8 11 13 12 14 15 17 18 18 19 16 15 15 13 14 16 17 17 19 16 12 12 16 15 14 13 12 10 8 8
12 13 12 10 10 9 9 8 9 9 10 9 11 13 14 16 17 19 22 22 21 20 16 16 15 12 10 12 15 16 17 17 16 14 12 13 15 17 15 14 12 11 10
10 10 10 9 9 9 10 10 10 11 12 13 15 18 19 20 21 23 24 22 22 21 19 15 15 12 11 12 17 15 14 15 16 16 15 14 15 14 17 18 16 15 12
13 10 8 8 8 10 10 11 12 14 15 16 18 20 23 24 23 22 22 21 16 15 15 13 15 12 12 14 14 12 14 16 18 18 16 15 14 14 14 14 20 22 16
17 15 15 15 16 16 14 13 15 17 18 18 19 21 22 22 18 11 12 13 11 11 10 12 12 14 14 14 13 10 17 20 21 16 16 14 14 13 12 13 16 12 24
22 18 15 17 18 18 17 17 21 22 23 23 22 19 11 7 11 12 13 15 11 8 9 13 14 16 14 15 13 12 13 22 22 20 16 13 14 10 9 10 11 14 15
19 18 17 20 19 23 22 22 23 23 24 25 24 22 21 23 16 12 9 8 8 12 15 16 17 19 16 16 15 16 14 18 21 17 15 13 12 11 12 13 14 16 13
22 23 21 22 21 22 22 21 21 22 23 24 22 22 20 19 20 22 20 20 18 17 18 19 20 18 17 18 18 14 14 16 15 14 13 8 12 14 12 11 11 12 13
21 21 21 22 20 20 20 21 22 22 21 22 21 21 21 19 18 17 18 20 19 18 19 20 17 18 20 16 14 16 14 14 14 15 7 11 13 12 6 7 10 13 14
22 25 26 21 19 18 19 21 21 21 21 22 22 22 21 21 20 20 18 21 21 22 21 21 24 20 18 15 14 15 14 13 15 15 11 16 16 9 8 5 8 11 14
26 24 20 19 17 18 19 20 20 20 21 20 20 21 20 19 19 21 22 18 19 18 26 24 18 17 19 18 15 13 15 15 15 15 13 13 9 9 10 12 13 14 11
20 18 18 16 15 18 21 22 20 20 21 21 21 21 21 20 20 22 19 19 20 16 20 20 20 18 15 18 12 16 18 16 14 14 11 10 8 9 9 9 7 8 6
16 15 12 12 24 31 29 26 24 23 24 22 21 21 22 22 21 22 17 16 19 20 23 22 21 20 18 14 13 19 19 15 14 12 9 8 8 8 6 6 5 6 7
15 21 25 24 33 31 25 25 24 23 23 22 21 21 22 22 22 20 16 16 16 14 17 17 18 15 15 16 19 19 14 13 12 10 8 8 9 9 8 6 6 5 4
22 22 20 28 24 23 23 23 22 21 21 21 20 20 21 21 19 16 16 16 18 21 22 22 22 20 19 22 19 16 13 11 11 11 9 10 10 9 8 5 6 5 6
16 20 20 18 19 20 21 22 22 21 20 19 18 18 19 20 17 16 17 17 18 17 17 19 21 20 19 18 16 13 12 11 11 11 10 11 9 9 8 7 7 7 7
17 16 14 16 18 19 21 22 22 21 20 19 18 18 18 18 16 13 12 13 13 13 12 14 15 15 16 17 13 11 11 11 11 10 11 11 10 9 8 9 9 9 10
13 13 14 15 18 19 21 22 22 21 19 17 16 16 17 15 12 11 11 11 11 11 12 12 12 14 13 13 10 11 11 11 11 10 10 10 10 9 8 8 9 10 10
13 13 14 16 18 19 22 24 22 17 14 13 13 13 11 8 8 8 8 8 9 9 10 12 12 12 11 11 11 11 11 10 10 9 10 10 9 7 7 6 5 6 8
14 14 15 16 18 19 22 20 16 12 11 11 11 10 8 8 9 8 7 9 9 10 12 11 11 10 10 10 10 10 9 9 9 9 9 8 7 6 5 5 3 3 3
14 15 16 17 18 19 19 17 12 10 11 11 11 11 10 9 9 7 7 7 6 6 7 7 9 8 8 9 9 8 8 7 7 7 7 6 7 6 5 5 5 5 4
15 16 17 18 18 17 14 15 10 11 12 12 12 11 10 9 8 7 7 7 5 5 3 4 6 6 6 6 6 6 6 6 5 6 6 6 7 6 6 7 6 6 6
17 19 18 18 16 13 13 13 12 13 13 11 11 11 10 10 9 7 7 7 6 4 4 4 4 3 3 3 4 4 4 4 5 4 6 7 6 6 4 7 7 7 7
Wind_Direction
200 205 195 195 199 200 196 203 214 221 231 250 273 296 309 310 311 315 323 320 327 327 325 322 325 325 329 331 319 314 311 303 304 309 316 323 332 334 333 328 322 323 316
216 223 226 217 216 208 210 216 222 234 251 278 296 303 307 311 309 312 310 310 312 313 318 308 310 316 313 322 323 322 309 302 295 291 293 299 308 315 319 325 320 315 307
237 237 241 232 230 227 226 230 239 260 275 286 293 298 301 307 310 301 308 297 297 301 306 302 297 304 297 317 314 319 312 307 306 289 284 288 293 299 301 308 310 304 296
244 246 248 241 238 239 239 245 258 272 280 287 295 300 302 295 288 292 294 289 293 294 292 288 291 289 302 311 304 310 306 308 307 305 279 278 285 287 295 293 291 293 296
248 243 240 239 236 239 246 249 258 272 280 290 301 290 295 293 289 289 290 293 287 287 284 266 279 281 277 296 306 310 306 306 310 307 284 278 271 270 276 287 290 285 284
235 228 224 223 233 247 256 262 271 282 287 293 289 290 290 286 284 282 286 288 287 280 277 272 278 271 278 305 323 321 305 307 307 302 295 284 279 276 268 263 272 275 280
227 230 237 230 247 257 257 269 274 272 280 291 290 293 287 290 290 286 284 291 293 283 267 265 272 256 282 301 316 320 313 312 319 305 298 291 282 275 269 271 260 262 259
223 230 234 239 243 251 256 259 269 273 273 278 281 290 300 304 308 284 277 278 291 287 257 264 245 268 275 282 288 296 318 324 326 308 294 292 288 282 276 269 264 264 246
238 230 244 255 259 258 262 262 273 274 276 279 278 275 289 288 301 286 283 280 291 279 258 253 254 266 271 279 278 281 310 316 321 318 300 291 290 298 289 264 263 260 263
240 234 239 256 253 263 271 274 277 282 283 285 285 278 271 269 274 292 292 276 261 257 260 263 263 265 268 280 285 286 303 310 316 311 295 287 290 279 275 278 265 249 248
242 244 251 254 257 268 269 274 281 284 286 287 286 286 281 274 267 258 271 272 274 268 263 259 259 260 263 279 277 284 310 318 314 311 315 300 271 274 282 283 281 275 263
255 259 262 264 264 262 270 278 282 283 285 286 284 282 282 280 275 273 267 268 274 275 263 259 248 260 266 263 274 296 312 315 304 308 290 269 272 281 313 291 285 278 272
240 248 255 256 259 270 279 284 286 286 285 285 284 282 278 277 276 275 269 269 259 264 267 260 258 253 256 266 281 287 306 301 297 311 281 262 270 274 256 283 282 289 282
245 246 248 252 263 276 283 285 285 285 286 287 285 281 277 275 274 276 270 270 273 263 261 250 257 255 264 264 269 285 296 294 288 301 293 281 267 261 261 272 284 288 289
236 247 252 263 281 301 295 289 290 294 292 290 287 282 279 277 277 279 269 254 253 259 264 257 243 264 244 268 265 291 293 288 289 297 292 277 268 273 274 275 282 315 325
236 242 260 292 307 305 300 299 295 292 288 287 285 282 280 279 279 281 270 255 250 253 261 265 255 259 261 248 278 285 282 278 284 292 299 272 275 283 277 272 278 301 346
242 271 279 284 282 289 285 286 285 285 285 284 283 281 278 278 279 275 259 255 251 249 258 255 243 238 247 269 281 280 266 270 279 283 281 273 274 286 292 272 258 252 313
239 235 253 271 283 278 280 282 284 286 286 286 283 278 277 281 280 270 256 254 256 251 253 256 259 262 264 267 267 269 255 261 266 276 279 277 277 282 289 286 243 234 229
239 267 272 274 278 281 285 287 289 288 286 283 281 278 279 282 282 274 260 260 261 259 257 251 250 247 250 255 261 248 250 254 262 271 280 283 279 281 279 272 259 240 233
252 257 268 276 281 285 287 287 285 285 282 279 277 276 277 280 279 271 261 257 255 247 235 226 233 236 243 256 253 244 248 256 262 272 276 276 278 278 272 265 263 253 236
252 265 274 280 283 285 287 286 285 282 277 277 278 282 285 276 278 274 267 265 262 251 238 234 232 238 249 254 241 247 255 261 268 270 272 275 275 276 273 267 262 257 245
259 268 277 283 287 289 288 287 283 279 277 277 280 287 284 263 262 258 257 249 245 241 240 242 245 253 254 249 249 250 255 261 265 268 266 268 270 271 271 271 269 255 246
262 273 280 286 290 295 298 292 281 269 263 264 271 267 254 256 258 255 251 247 242 244 246 247 246 248 251 249 250 254 257 255 257 260 267 264 255 253 258 269 263 248 242
262 273 282 287 291 296 304 294 271 248 250 256 256 245 249 254 256 256 255 251 236 239 238 236 236 234 240 246 248 254 255 257 254 254 252 257 243 251 254 259 256 255 252
267 279 282 285 289 298 296 289 257 248 249 248 244 248 250 249 254 262 253 252 247 231 237 243 243 242 243 247 250 257 257 255 255 248 246 258 249 249 262 257 247 240 244
268 276 279 283 285 287 285 280 251 244 242 242 242 244 245 245 248 248 248 231 233 231 232 241 234 233 240 243 247 255 258 252 253 262 248 239 247 259 270 251 241 241 226
Height
1556 1557 1557 1557 1558 1559 1559 1560 1561 1562 1562 1563 1563 1563 1563 1563 1562 1562 1562 1562 1562 1561 1560 1559 1559 1557 1556 1554 1552 1552 1551 1551 1550 1549 1548 1547 1546 1545 1544 1542 1541 1541 1541
1555 1555 1556 1556 1557 1558 1558 1559 1560 1560 1561 1561 1561 1561 1561 1561 1561 1561 1560 1560 1560 1559 1558 1557 1557 1556 1555 1553 1552 1551 1550 1548 1547 1547 1546 1546 1545 1544 1543 1542 1541 1541 1540
1552 1554 1554 1555 1556 1556 1557 1557 1558 1559 1559 1559 1560 1560 1559 1560 1560 1559 1559 1558 1557 1556 1556 1555 1554 1554 1553 1552 1551 1549 1548 1546 1546 1545 1544 1543 1543 1543 1542 1541 1540 1540 1539
1549 1551 1552 1553 1554 1555 1555 1556 1556 1556 1557 1558 1558 1559 1558 1558 1557 1557 1556 1555 1555 1554 1553 1553 1552 1551 1551 1550 1549 1547 1545 1544 1543 1542 1542 1541 1541 1540 1540 1539 1538 1537 1538
1547 1548 1550 1551 1552 1553 1554 1555 1555 1555 1555 1556 1556 1556 1556 1555 1554 1553 1553 1552 1550 1549 1549 1548 1548 1548 1548 1548 1547 1545 1543 1541 1541 1540 1540 1539 1538 1538 1537 1537 1537 1535 1535
1546 1547 1548 1549 1550 1552 1553 1553 1554 1554 1554 1554 1554 1553 1552 1551 1550 1549 1548 1547 1546 1545 1545 1545 1545 1545 1545 1545 1544 1542 1542 1540 1538 1537 1537 1536 1535 1535 1534 1534 1534 1534 1533
1544 1545 1547 1548 1549 1550 1551 1552 1552 1552 1552 1551 1549 1548 1547 1546 1545 1544 1542 1542 1541 1540 1541 1542 1543 1543 1542 1542 1541 1540 1540 1538 1537 1534 1532 1531 1532 1531 1531 1531 1530 1530 1531
1540 1542 1544 1545 1546 1548 1549 1550 1550 1549 1548 1548 1547 1545 1541 1540 1539 1539 1539 1538 1538 1537 1538 1539 1539 1539 1539 1539 1538 1536 1536 1535 1534 1532 1530 1529 1528 1528 1528 1528 1528 1527 1526
1536 1536 1540 1542 1545 1545 1545 1545 1546 1545 1544 1544 1544 1544 1542 1538 1537 1538 1537 1536 1535 1535 1536 1537 1537 1536 1536 1536 1535 1534 1533 1532 1531 1529 1527 1526 1525 1525 1524 1524 1524 1524 1524
1534 1534 1534 1537 1539 1541 1541 1542 1542 1542 1540 1539 1539 1538 1537 1536 1537 1534 1534 1533 1533 1533 1533 1533 1534 1534 1533 1532 1532 1531 1530 1529 1527 1525 1524 1523 1522 1521 1519 1520 1519 1519 1519
1530 1532 1532 1535 1535 1536 1537 1537 1537 1537 1536 1535 1535 1534 1532 1532 1532 1532 1531 1531 1529 1530 1530 1530 1530 1530 1530 1529 1529 1527 1526 1525 1524 1523 1522 1521 1518 1518 1516 1516 1516 1516 1515
1526 1528 1530 1531 1531 1532 1532 1533 1532 1532 1531 1531 1531 1530 1529 1528 1527 1528 1527 1527 1527 1525 1526 1526 1525 1526 1526 1525 1525 1524 1523 1522 1521 1520 1520 1517 1515 1514 1515 1514 1512 1512 1511
1522 1525 1526 1527 1528 1529 1528 1528 1528 1528 1525 1526 1527 1526 1524 1523 1523 1522 1522 1523 1524 1524 1522 1521 1521 1521 1523 1523 1522 1520 1519 1519 1518 1517 1515 1513 1511 1511 1511 1512 1509 1508 1506
1518 1520 1522 1523 1524 1524 1524 1524 1523 1523 1522 1520 1521 1521 1520 1518 1518 1518 1517 1518 1519 1518 1518 1518 1519 1517 1518 1518 1518 1517 1516 1516 1515 1513 1511 1510 1508 1508 1508 1508 1507 1505 1503
1512 1516 1519 1520 1520 1520 1521 1520 1520 1518 1518 1517 1516 1516 1514 1514 1514 1513 1511 1512 1515 1514 1514 1513 1513 1513 1513 1514 1514 1514 1514 1512 1511 1510 1506 1508 1506 1505 1506 1506 1505 1504 1501
1509 1511 1515 1516 1516 1515 1516 1515 1513 1513 1514 1512 1511 1511 1510 1509 1508 1508 1507 1507 1509 1510 1510 1510 1510 1509 1509 1510 1509 1512 1510 1510 1508 1507 1504 1505 1505 1503 1503 1504 1504 1503 1501
1505 1508 1511 1513 1514 1513 1512 1511 1510 1508 1509 1508 1506 1506 1506 1504 1503 1501 1503 1504 1505 1505 1506 1505 1506 1505 1505 1506 1506 1507 1507 1506 1506 1504 1502 1502 1501 1500 1500 1502 1502 1502 1502
1502 1505 1507 1507 1507 1508 1507 1506 1506 1504 1502 1502 1502 1501 1499 1499 1498 1497 1499 1499 1500 1501 1501 1501 1503 1503 1503 1502 1502 1503 1503 1502 1502 1501 1500 1501 1499 1497 1498 1499 1500 1500 1501
1499 1501 1503 1503 1503 1503 1502 1501 1500 1498 1497 1497 1496 1497 1495 1493 1493 1493 1494 1494 1494 1494 1494 1496 1498 1498 1499 1499 1498 1498 1499 1499 1499 1498 1499 1500 1498 1495 1496 1497 1498 1498 1499
1496 1498 1498 1499 1499 1499 1498 1497 1496 1494 1493 1492 1492 1492 1490 1490 1490 1489 1490 1490 1490 1490 1490 1491 1494 1495 1495 1497 1495 1496 1496 1497 1496 1495 1496 1496 1496 1493 1494 1494 1494 1496 1497
1493 1493 1494 1494 1495 1494 1493 1492 1491 1489 1487 1487 1487 1487 1486 1486 1487 1488 1488 1487 1488 1488 1489 1489 1490 1491 1491 1494 1493 1493 1494 1494 1492 1492 1492 1493 1494 1492 1492 1492 1492 1492 1493
1489 1490 1490 1490 1490 1490 1489 1487 1485 1483 1482 1483 1485 1485 1485 1484 1484 1485 1485 1484 1485 1485 1487 1488 1488 1488 1489 1491 1491 1490 1491 1491 1490 1489 1489 1491 1491 1490 1489 1489 1490 1490 1490
1485 1486 1486 1486 1486 1485 1483 1481 1480 1479 1480 1481 1482 1482 1483 1483 1483 1482 1483 1483 1482 1483 1484 1485 1485 1486 1487 1489 1489 1488 1488 1488 1487 1487 1488 1488 1489 1488 1488 1488 1488 1488 1488
1482 1482 1481 1481 1480 1480 1479 1477 1476 1477 1478 1479 1480 1481 1481 1482 1481 1481 1481 1481 1480 1480 1482 1482 1483 1483 1485 1486 1486 1485 1485 1485 1485 1485 1486 1486 1487 1487 1486 1486 1486 1487 1487
1477 1477 1477 1477 1476 1476 1475 1475 1474 1475 1476 1477 1478 1479 1480 1480 1480 1480 1479 1479 1479 1479 1479 1480 1481 1482 1483 1483 1483 1483 1483 1483 1483 1484 1484 1485 1485 1485 1485 1484 1485 1485 1485
1472 1473 1472 1472 1471 1472 1472 1472 1472 1473 1474 1475 1476 1477 1477 1478 1478 1478 1478 1478 1478 1478 1478 1479 1480 1481 1481 1482 1482 1482 1482 1482 1482 1482 1482 1484 1483 1484 1483 1482 1482 1483 1484